Location: La Comballaz
(46.3780°N, 7.0817°E)
Time: 07:20:26
(UTC+00:00)

Aureole 1 Rocket - Pass Details

Date: 09 April 2020
Orbit: 379 x 1379 km, 73.9° (Epoch: 02 June)

Event Time Altitude Azimuth Distance (km) Brightness Sun altitude
Rises 18:35:46 0° 185° (S) 4,213 7.2 -4.8°
Reaches altitude 10° 18:38:50 10° 181° (S) 3,139 6.5 -5.3°
Maximum altitude 18:46:01 55° 107° (ESE) 1,213 4.2 -6.5°
Drops below altitude 10° 18:51:41 10° 31° (NNE) 2,483 6.0 -7.4°
Sets 18:53:52 0° 27° (NNE) 3,279 6.7 -7.8°
